Location: Azalea Creek
(37.1280°N, 119.2623°W)
Time: 20:38:29
(UTC+00:00)

Ariane Rocket - Pass Details

Date: 17 February 2020
Orbit: 759 x 771 km, 98.7° (Epoch: 07 April)

Event Time Altitude Azimuth Distance (km) Brightness Sun altitude
Rises 02:14:02 0° 129° (SE) 3,227 5.8 -7.9°
Reaches altitude 10° 02:16:49 10° 114° (ESE) 2,307 5.0 -8.5°
Maximum altitude 02:20:35 21° 66° (ENE) 1,663 4.2 -9.2°
Drops below altitude 10° 02:24:22 10° 18° (NNE) 2,320 5.2 -9.9°
Sets 02:27:09 0° 3° (N) 3,252 6.1 -10.5°
